Regional Weather Roundup
Issued by NWS

Home | Current Version | Previous Version | Graphics & Text | Print | Product List | Glossary On
Versions: 1 2 3 4 5 6 7 8 9 10 11 12 13 14 15 16 17 18 19 20 21 22 23 24 25 26 27 28 29 30 31 32 33 34 35 36 37 38 39 40 41 42 43 44 45 46 47 48 49 50
000
ASUS45 KSLC 022010
RWRUT

UTAH REGIONAL WEATHER ROUNDUP
NATIONAL WEATHER SERVICE SALT LAKE CITY UT
200 PM MDT THU JUL 02 2015

UTZ001>011-023>025-022100-

NORTHERN UTAH

CITY           SKY/WX    TMP DP  RH WIND       PRES   REMARKS
BRIGHAM CITY   SUNNY     93  37  14 CALM      30.06S
HILL AFB       SUNNY     92  46  20 NW8       30.11S
LOGAN          SUNNY     90  47  22 SW6       30.07F
OGDEN          SUNNY     93  39  15 W5        30.07F
PROVO AIRPORT  MOSUNNY   88  54  31 SW8       30.08F
SALT LAKE CITY MOSUNNY   95  48  20 NW8       30.05F HX  91
VERNAL         SUNNY     91  41  17 SW5       30.11F
WENDOVER       MOSUNNY   97  45  16 SE12      30.06F HX  93
HEBER CITY     MOSUNNY   91  36  14 N5        30.15F
WEST JORDAN    SUNNY     93  43  17 W12G17    30.09F

$$

UTZ012>022-026-027-022100-

SOUTHERN/CENTRAL UTAH

CITY           SKY/WX    TMP DP  RH WIND       PRES   REMARKS
BLANDING       SUNNY     88  53  29 S7        30.22F
BRYCE CANYON   MOSUNNY   83  46  27 NE14      30.33F
CEDAR CITY     PTSUNNY   88  47  24 VRB6      30.17F
DELTA          SUNNY     96  38  13 NE10      30.08F HX  91
HANKSVILLE     PTSUNNY   97  37  12 SE5       30.04F HX  92
MILFORD        MOSUNNY   96  44  16 VRB6      30.10F HX  92
MOAB/CYNLANDS  SUNNY     92  51  24 E6        30.03F
PRICE          MOSUNNY   93  38  14 S7        30.15F
ST GEORGE      PTCLDY    97  55  24 NW9       29.98F HX  95
KANAB          SUNNY     91  55  29 S8        30.15F

$$

REGIONAL REPORTS     COLORADO/ARIZONA

CITY           SKY/WX    TMP DP  RH WIND       PRES   REMARKS
CRAIG, CO      PTSUNNY   87  41  19 VRB3      30.18F
GRAND JUNCTION PTSUNNY   93  48  21 W9        30.05F
RIFLE          PTSUNNY   92  47  21 W8        30.10F
MONTROSE       CLOUDY    88  51  28 NW7       30.15F
CORTEZ         SUNNY     88  50  27 W10G18    30.14F
PAGE, AZ       SUNNY     97  50  20 N7        30.04F HX  94
GRAND CANYON   SUNNY     81  51  35 S9G21     30.28F
KINGMAN        SUNNY     95  52  23 S9        30.05F HX  92
FLAGSTAFF      PTSUNNY   78  54  43 VRB7      30.30F

$$

REGIONAL REPORTS    NEVADA/IDAHO/WYOMING

CITY           SKY/WX    TMP DP  RH WIND       PRES   REMARKS
LAS VEGAS, NV  MOSUNNY   99  59  26 VRB3      29.90F HX  99
ELY            PTSUNNY   86  44  23 VRB6      30.26F
ELKO           SUNNY     95  45  17 SW6       30.12F HX  91
POCATELLO, ID  SUNNY     89  57  33 NW10      30.10F
BURLEY         SUNNY     90  42  18 W3        30.07F
EVANSTON, WY   SUNNY     85  37  18 VRB5G18   30.28S
ROCK SPRINGS   SUNNY     83  50  31 CALM      30.24F
KEMMERER       MOSUNNY  N/A N/A N/A W13       30.28F

$$


USA.gov is the U.S. government's official web portal to all federal, state and local government web resources and services.